Regional Weather Roundup
Issued by NWS Sioux Falls, SD

Home | Current Version | Previous Version | Text Only | Print | Product List | Glossary Off
Versions: 1 2 3 4 5 6 7 8 9 10 11 12 13 14 15 16 17 18 19 20 21 22 23 24 25 26 27 28 29 30 31 32 33 34 35 36 37 38 39 40 41 42 43 44 45 46 47 48 49 50
000 ASUS43 KFSD 281210 RWRFSD WEATHER ROUNDUP FOR SE SOUTH DAKOTA/SW MINNESOTA/NW IOWA NATIONAL WEATHER SERVICE SIOUX FALLS SD 600 AM CST TUE JAN 28 2020 NOTE: "FAIR" INDICATES FEW OR NO CLOUDS BELOW 12,000 FEET WITH NO SIGNIFICANT WEATHER AND OR OBSTRUCTIONS TO VISIBILITY. SDZ038>040-050-052>070-281300- SOUTHEAST SOUTH DAKOTA CITY SKY/WX TMP DP RH WIND PRES REMARKS BROOKINGS FOG 17 17 100 N5 30.09F VSB 1 WCI 10 CHAMBERLAIN CLOUDY 29 29 100 SE3 30.08S FOG 6HR MIN TEMP: 28; 6HR MAX TEMP: 29; HURON CLOUDY 22 21 96 SE6 30.11S WCI 14 6HR MIN TEMP: 22; 6HR MAX TEMP: 23; MADISON CLOUDY 16 16 100 CALM 30.09S FOG MITCHELL CLOUDY 26 24 92 CALM 30.12S FOG 6HR MIN TEMP: 24; 6HR MAX TEMP: 26; SIOUX FALLS FRZ DRZL 19 16 88 N6 30.12S FOG WCI 11 6HR MIN TEMP: 19; 6HR MAX TEMP: 21; 6HR PCP: TRACE; WINNER CLOUDY 29 26 89 E5 30.05F WCI 24 YANKTON CLOUDY 25 23 92 CALM 30.13S $$ MNZ071-072-080-081-089-090-097-098-281300- SOUTHWEST MINNESOTA CITY SKY/WX TMP DP RH WIND PRES REMARKS FAIRMONT FLURRIES 14 12 92 NW10 30.15S WCI 1 LUVERNE CLOUDY 16 12 86 N5 30.12F WCI 9 MARSHALL CLOUDY 14 12 92 N8 30.14F FOG WCI 3 6HR MIN TEMP: 14; 6HR MAX TEMP: 15; 6HR PCP: TRACE; MONTEVIDEO FOG 12 10 92 CALM 30.16F VSB 1 PIPESTONE CLOUDY 12 12 100 CALM 30.09F FOG REDWOOD FALLS FLURRIES 13 10 88 NW5 30.16S WCI 5 WINDOM CLOUDY 14 12 92 CALM 30.11F FOG WORTHINGTON CLOUDY 14 12 92 NW8 30.12R FOG WCI 3 $$ IAZ001>003-012>014-020>022-031-032-NEZ013-014-SDZ071-281300- NORTHWEST IOWA CITY SKY/WX TMP DP RH WIND PRES REMARKS CHEROKEE CLOUDY 21 21 100 N5 30.13F WCI 15 DENISON CLOUDY 23 23 100 NW8 30.14S WCI 14 ESTHERVILLE CLOUDY 15 13 91 N9 30.12S FOG WCI 3 LE MARS CLOUDY 21 21 100 N8 30.13F WCI 12 MAURICE CLOUDY 18 18 100 N12 30.12F FOG WCI 5 SHELDON CLOUDY 18 18 100 NW9 30.11S FOG WCI 6 SIOUX CITY CLOUDY 24 22 91 N8 30.14F WCI 15 6HR MIN TEMP: 24; 6HR MAX TEMP: 26; SPENCER CLOUDY 19 16 88 N7 30.12S FOG WCI 10 6HR MIN TEMP: 19; 6HR MAX TEMP: 22; 6HR PCP: TRACE; STORM LAKE CLOUDY 21 21 100 NW8 30.07F FOG WCI 12 $$ ABBREVIATIONS USED IN REMARKS TC - TEMPERATURE IN CELSIUS WCI - WIND CHILL INDEX HX - HEAT INDEX VSB - VISIBILITY

USA.gov is the U.S. government's official web portal to all federal, state and local government web resources and services.